Location: Unspecified
(33.2407°S, 0.0000°E)
Time: 22:04:25
(UTC+00:00)

NOAA 19 - Visible Passes

Search period start: 20 July 2019 00:00
Search period end: 30 July 2019 00:00
Orbit: 842 x 860 km, 99.2° (Epoch: 20 July)

Date Brightness Start Highest point End Pass type
(mag) Time Alt. Az. Time Alt. Az. Time Alt. Az.
20 Jul 5.7 04:21:21 10° NNE 04:25:39 54° NE 04:25:39 54° NE visible
20 Jul 7.0 06:06:11 10° WNW 06:07:40 11° W 06:07:40 11° W visible
20 Jul 7.6 18:29:25 10° SSW 18:33:26 21° WSW 18:37:26 10° WNW visible
21 Jul 6.1 04:09:51 10° NNE 04:13:54 44° ENE 04:13:54 44° ENE visible
21 Jul 6.7 05:52:57 10° NW 05:55:55 16° W 05:55:55 16° W visible
21 Jul 7.2 18:17:21 10° SSW 18:21:54 27° WSW 18:26:24 10° WNW visible
22 Jul 6.6 03:58:27 10° NE 04:02:10 35° ENE 04:02:10 35° ENE visible
22 Jul 6.4 05:40:22 10° NW 05:44:11 20° W 05:44:11 20° W visible
22 Jul 6.9 18:05:24 10° S 18:10:20 34° WSW 18:15:14 10° NW visible
23 Jul 7.0 03:47:10 10° NE 03:50:26 28° E 03:50:26 28° E visible
23 Jul 6.1 05:28:04 10° NNW 05:32:27 27° W 05:32:27 27° W visible
23 Jul 6.4 17:53:32 10° S 17:58:45 44° WSW 18:03:55 10° NW visible
24 Jul 7.3 03:36:01 10° ENE 03:38:42 22° E 03:38:42 22° E visible
24 Jul 5.8 05:15:56 10° NNW 05:20:43 35° WNW 05:20:43 35° WNW visible
24 Jul 5.9 17:41:43 10° S 17:47:08 58° WSW 17:52:30 10° NNW visible
25 Jul 7.7 03:25:01 10° ENE 03:26:59 17° E 03:26:59 17° E visible
25 Jul 5.5 05:03:57 10° N 05:09:00 45° WNW 05:09:00 45° WNW visible
26 Jul 8.0 03:14:14 10° E 03:15:16 13° E 03:15:16 13° E visible
26 Jul 5.2 04:52:05 10° N 04:57:18 59° WNW 04:57:18 59° WNW visible
26 Jul 8.1 19:02:26 10° SW 19:03:43 11° WSW 19:05:00 10° WSW visible
27 Jul 5.1 04:40:20 10° N 04:45:35 75° NW 04:45:35 75° NW visible
27 Jul 7.9 18:49:24 10° SSW 18:52:14 14° WSW 18:55:03 10° W visible
28 Jul 5.2 04:28:41 10° NNE 04:33:54 78° NE 04:33:54 78° NE visible
28 Jul 7.8 18:37:02 10° SSW 18:40:43 19° WSW 18:44:24 10° WNW visible
29 Jul 5.6 04:17:08 10° NNE 04:22:12 62° E 04:22:12 62° E visible
29 Jul 6.8 06:01:01 10° WNW 06:03:34 13° W 06:04:13 13° W visible
29 Jul 7.5 18:24:53 10° SSW 18:29:11 24° WSW 18:33:28 10° WNW visible
